Kinloss, United Kingdom

8:08 AM BST on September 20, 2017 (GMT +0100)
Kinloss Air Base

Weather History for EGQK - April, 2013

Change the Weather History Date:

Saturday, April 6, 2013

  Actual Average Record
Temperature  
Mean Temperature 36 °F -  
Max Temperature 46 °F 52 °F 65 °F (2014)
Min Temperature 26 °F 38 °F 26 °F (2013)
Degree Days  
Heating Degree Days 29    
Moisture  
Dew Point 30 °F    
Average Humidity 78    
Maximum Humidity 93    
Minimum Humidity 45    
Precipitation  
Precipitation 0.08 in 0.05 in - ()
Sea Level Pressure  
Sea Level Pressure 30.23 in    
Wind  
Wind Speed 5 mph ()    
Max Wind Speed 12 mph    
Max Gust Speed -    
Visibility 6.1 miles    
Events Rain , Snow    
Averages and records for this station are not official NWS values.
T = Trace of Precipitation, MM = Missing Value Source: Averaged Metar Reports

Daily Weather History Graph

Daily Weather History Graph

Search for Another Location

Airport or City:

Trip Planner

Search our weather history database for the weather conditions in past years. The results will help you decide how hot, cold, wet, or windy it might be!

Date:

Astronomy

Apr. 06, 2013 Rise Set
Actual Time 6:28 AM BST 8:05 PM BST
Civil Twilight 5:48 AM BST 8:46 PM BST
Nautical Twilight 4:57 AM BST 9:37 PM BST
Astronomical Twilight 3:58 AM BST 10:37 PM BST
Moon 4:51 AM BST (4/6) 3:36 PM BST (4/6)
Length of Visible Light 14h 58m
Length of Day
13h 37m
Waning Crescent, 17% of the Moon is Illuminated
Apr 6
Waning Crescent
Apr 10
New
Apr 18
First Quarter
Apr 25
Full
May 2
Last Quarter

Hourly Weather History & Observations

Time (BST) Temp. Windchill Dew Point Humidity Pressure Visibility Wind Dir Wind Speed Gust Speed Precip Events Conditions
12:50 AM 31 °F - 25 °F 72% 30.27 in 19 mi WSW 4.6 mph - -   Mostly Cloudy
12:50 AM 32.0 °F 27.5 °F 24.8 °F 75% 30.24 in 6.2 mi WSW 4.6 mph - N/A   Mostly Cloudy
1:50 AM 32.0 °F 25.6 °F 24.8 °F 75% 30.24 in 6.2 mi SW 6.9 mph - N/A   Mostly Cloudy
2:50 AM 30.2 °F - 24.8 °F 80% 30.24 in 6.2 mi SW 2.3 mph - N/A   Partly Cloudy
3:50 AM 29 °F - 25 °F 80% 30.26 in 31 mi SSW 2.3 mph - -   Scattered Clouds
3:50 AM 28.4 °F - 24.8 °F 86% 30.24 in 6.2 mi SSW 2.3 mph - N/A   Partly Cloudy
4:50 AM 28.4 °F 23.3 °F 24.8 °F 86% 30.24 in 6.2 mi WSW 4.6 mph - N/A   Unknown
5:50 AM 32.0 °F 26.4 °F 26.6 °F 80% 30.24 in 6.2 mi SW 5.8 mph - N/A   Mostly Cloudy
6:50 AM 32 °F - 28 °F 79% 30.27 in 25 mi SW 2.3 mph - -  
6:50 AM 32.0 °F - 28.4 °F 87% 30.24 in 6.2 mi SW 2.3 mph - N/A   Mostly Cloudy
7:50 AM 33.8 °F 30.8 °F 26.6 °F 75% 30.24 in 6.2 mi WSW 3.5 mph - N/A   Mostly Cloudy
8:50 AM 35.6 °F 29.9 °F 28.4 °F 75% 30.24 in 6.2 mi SW 6.9 mph - N/A   Mostly Cloudy
9:50 AM 38 °F - 30 °F 62% 30.27 in 28 mi West 5.8 mph - -   Partly Cloudy
9:50 AM 37.4 °F 32.8 °F 30.2 °F 75% 30.24 in 6.2 mi West 5.8 mph - N/A   Mostly Cloudy
10:50 AM 41.0 °F 38.0 °F 32.0 °F 70% 30.24 in 6.2 mi West 4.6 mph - N/A   Mostly Cloudy
11:50 AM 42.8 °F 40.1 °F 30.2 °F 61% 30.24 in 6.2 mi WNW 4.6 mph - N/A   Mostly Cloudy
12:50 PM 44 °F - 30 °F 45% 30.25 in 31 mi NNW 9.2 mph - -   Mostly Cloudy
12:50 PM 44.6 °F 39.7 °F 30.2 °F 57% 30.24 in 6.2 mi NNW 9.2 mph - N/A   Mostly Cloudy
1:50 PM 44.6 °F 41.4 °F 30.2 °F 57% 30.21 in 6.2 mi NW 5.8 mph - N/A   Mostly Cloudy
2:50 PM 41.0 °F 34.3 °F 33.8 °F 76% 30.21 in 6.2 mi NE 11.5 mph - N/A   Overcast
3:50 PM 42 °F - 33 °F 60% 30.22 in 25 mi ENE 9.2 mph - -   Partly Cloudy
3:50 PM 41.0 °F 35.2 °F 33.8 °F 76% 30.21 in 6.2 mi ENE 9.2 mph - N/A   Mostly Cloudy
4:50 PM 39.2 °F 32.0 °F 33.8 °F 81% 30.21 in 6.2 mi ENE 11.5 mph - N/A Rain Light Rain Showers
5:50 PM 35.6 °F 28.6 °F 33.8 °F 93% 30.21 in 5.6 mi ENE 9.2 mph - N/A Rain Rain
6:50 PM 35 °F - 33 °F 89% 30.22 in 8 mi ENE 10.4 mph - - Rain Light Rain
6:50 PM 35.6 °F 28.0 °F 33.8 °F 93% 30.21 in 6.2 mi ENE 10.4 mph - N/A Rain Light Rain
7:50 PM 33.8 °F 28.6 °F 32.0 °F 93% 30.21 in 6.2 mi ENE 5.8 mph - N/A Rain Light Rain
8:50 PM 33.8 °F 26.4 °F 32.0 °F 93% 30.21 in 6.2 mi ENE 9.2 mph - N/A Rain Light Rain
9:50 PM 33 °F - 31 °F 87% 30.25 in 1 mi ENE 6.9 mph - - Snow Snow
9:50 PM 32.0 °F 25.6 °F 30.2 °F 93% 30.24 in 0.6 mi ENE 6.9 mph - N/A Snow Snow
10:50 PM 32.0 °F 28.7 °F 30.2 °F 93% 30.21 in 1.6 mi East 3.5 mph - N/A Snow Light Snow
11:50 PM 33.8 °F 30.8 °F 30.2 °F 87% 30.21 in 6.2 mi SSE 3.5 mph - N/A Snow Snow Grains